Location: La Comballaz
(46.3780°N, 7.0817°E)
Time: 04:53:05
(UTC+00:00)

X-37B - Pass Details

Date: 10 December 2021
Orbit: 334 x 337 km, 45.0° (Epoch: 11 January)

Event Time Altitude Azimuth Distance (km) Brightness Sun altitude
Rises 16:38:43 0° 235° (SW) 2,097 6.3 -9.0°
Reaches altitude 10° 16:40:49 10° 224° (SW) 1,263 4.4 -9.3°
Maximum altitude 16:43:22 31° 159° (SSE) 620 1.6 -9.7°
Enters shadow 16:45:33 13° 98° (E) 1,125 2.4 -10.1°
